Back to Top

Language: 

My Weather Underground Personal Weather Station Historical Data with Graphs...

Delerius Weather Station Historical Data
Daily Summary for February 26, 2017 Units:  Metric    English   Both
« Previous Day
Next Day »
Daily Weekly Monthly Yearly Custom
  High: Low: Average:
Temperature: 11.2 °C 6.2 °C 9.2 °C
Dew Point: 8.8 °C 4.2 °C 6.7 °C
Humidity: 95 % 77 % 85 %
Wind Speed: 38.6 km/h 0 km/h 18.5 km/h
Wind Gust: 48.3 km/h - -
Wind:- - SW
Pressure: 1002.9 hPa 993.1 hPa -
Precipitation: 1.27 mm    
Historical Graphs
 
 
Tabular Data for February 26, 2017
Time Temperature Dew Point Pressure Wind Wind Speed Wind Gust Humidity Rainfall Rate (Hourly) solar Conditions
00:00 9.4 °C 8.4 °C 1002.3 hPa SSW 12.9 km/h 25.7 km/h 94 % 0 mm 0 W/m2
00:05 9.4 °C 8.4 °C 1002.3 hPa SW 12.9 km/h 25.7 km/h 94 % 0 mm 0 W/m2
00:15 9.4 °C 8.4 °C 1002.3 hPa SW 12.9 km/h 12.9 km/h 94 % 0 mm 0 W/m2
00:20 9.4 °C 8.4 °C 1002.3 hPa SW 11.3 km/h 11.3 km/h 94 % 0 mm 0 W/m2
00:30 9.4 °C 8.5 °C 1002.3 hPa SSW 14.5 km/h 14.5 km/h 94 % 0 mm 0 W/m2
00:35 9.5 °C 8.6 °C 1002.3 hPa SSW 14.5 km/h 20.9 km/h 94 % 0 mm 0 W/m2
00:45 9.5 °C 8.6 °C 1002.3 hPa SSW 11.3 km/h 12.9 km/h 94 % 0 mm 0 W/m2
00:50 9.5 °C 8.6 °C 1002.3 hPa SSW 11.3 km/h 11.3 km/h 94 % 0 mm 0 W/m2
00:55 9.4 °C 8.5 °C 1002.3 hPa South 9.7 km/h 11.3 km/h 94 % 0 mm 0 W/m2
01:00 9.4 °C 8.7 °C 1002.3 hPa SSW 9.7 km/h 9.7 km/h 95 % 0 mm 0 W/m2
01:05 9.4 °C 8.7 °C 1002.3 hPa SSE 9.7 km/h 24.1 km/h 95 % 0 mm 0 W/m2
01:10 9.4 °C 8.7 °C 1002.3 hPa SSW 6.4 km/h 6.4 km/h 95 % 0 mm 0 W/m2
01:20 9.4 °C 8.7 °C 1001.9 hPa SSW 8 km/h 24.1 km/h 95 % 0 mm 0 W/m2
01:25 9.5 °C 8.7 °C 1001.9 hPa SSW 8 km/h 24.1 km/h 95 % 0 mm 0 W/m2
01:30 9.5 °C 8.7 °C 1001.9 hPa SW 6.4 km/h 24.1 km/h 95 % 0 mm 0 W/m2
01:35 9.5 °C 8.7 °C 1001.9 hPa SW 4.8 km/h 24.1 km/h 95 % 0 mm 0 W/m2
01:40 9.5 °C 8.7 °C 1001.9 hPa SW 3.2 km/h 24.1 km/h 95 % 0 mm 0 W/m2
01:50 9.6 °C 8.8 °C 1001.9 hPa SW 1.6 km/h 1.6 km/h 95 % 0 mm 0 W/m2
02:00 9.5 °C 8.7 °C 1001.9 hPa Calm   24.1 km/h 95 % 0 mm 0 W/m2
02:05 9.5 °C 8.7 °C 1001.9 hPa Calm   24.1 km/h 95 % 0 mm 0 W/m2
02:10 9.6 °C 8.8 °C 1001.9 hPa WSW 3.2 km/h 24.1 km/h 95 % 0 mm 0 W/m2
02:15 9.6 °C 8.8 °C 1001.9 hPa WSW 3.2 km/h 24.1 km/h 95 % 0 mm 0 W/m2
02:25 9.6 °C 8.8 °C 1001.9 hPa Calm   24.1 km/h 95 % 0 mm 0 W/m2
02:30 9.6 °C 8.8 °C 1001.9 hPa Calm   24.1 km/h 95 % 0 mm 0 W/m2
02:35 9.5 °C 8.7 °C 1001.6 hPa Calm   24.1 km/h 95 % 0 mm 0 W/m2
02:40 9.4 °C 8.7 °C 1001.6 hPa WNW 3.2 km/h 24.1 km/h 95 % 0 mm 0 W/m2
02:45 9.3 °C 8.6 °C 1001.9 hPa WNW 9.7 km/h 24.1 km/h 95 % 0 mm 0 W/m2
02:50 9.2 °C 8.4 °C 1001.9 hPa NW 12.9 km/h 24.1 km/h 95 % 0 mm 0 W/m2
03:00 9 °C 8.2 °C 1001.9 hPa WNW 12.9 km/h 24.1 km/h 95 % 0 mm 0 W/m2
03:05 8.9 °C 8.1 °C 1001.9 hPa West 14.5 km/h 24.1 km/h 94 % 0 mm 0 W/m2
03:10 8.9 °C 8 °C 1001.9 hPa West 11.3 km/h 11.3 km/h 94 % 0 mm 0 W/m2
03:20 8.7 °C 7.8 °C 1002.3 hPa West 9.7 km/h 24.1 km/h 94 % 0 mm 0 W/m2
03:25 8.7 °C 7.8 °C 1001.9 hPa WNW 9.7 km/h 24.1 km/h 94 % 0 mm 0 W/m2
03:35 8.6 °C 7.5 °C 1002.3 hPa West 9.7 km/h 11.3 km/h 93 % 0 mm 0 W/m2
03:40 8.6 °C 7.5 °C 1002.3 hPa West 8 km/h 8 km/h 93 % 0 mm 0 W/m2
03:45 8.6 °C 7.5 °C 1002.3 hPa West 8 km/h 9.7 km/h 93 % 0 mm 0 W/m2
03:50 8.6 °C 7.3 °C 1002.3 hPa West 8 km/h 8 km/h 92 % 0 mm 0 W/m2
04:00 8.5 °C 7.3 °C 1002.3 hPa West 4.8 km/h 4.8 km/h 92 % 0 mm 0 W/m2
04:10 8.4 °C 7.2 °C 1002.3 hPa West 6.4 km/h 24.1 km/h 92 % 0 mm 0 W/m2
04:15 8.4 °C 7.1 °C 1002.3 hPa West 8 km/h 24.1 km/h 91 % 0 mm 0 W/m2
04:20 8.4 °C 7 °C 1002.3 hPa West 11.3 km/h 24.1 km/h 91 % 0 mm 0 W/m2
04:25 8.4 °C 7 °C 1002.3 hPa West 12.9 km/h 24.1 km/h 91 % 0 mm 0 W/m2
04:30 8.3 °C 6.9 °C 1002.3 hPa West 8 km/h 8 km/h 91 % 0 mm 0 W/m2
04:40 8.3 °C 6.9 °C 1002.6 hPa WSW 6.4 km/h 24.1 km/h 91 % 0 mm 0 W/m2
04:45 8.2 °C 6.8 °C 1002.6 hPa West 9.7 km/h 24.1 km/h 91 % 0 mm 0 W/m2
04:50 8.2 °C 6.8 °C 1002.6 hPa West 9.7 km/h 9.7 km/h 91 % 0 mm 0 W/m2
04:55 8.2 °C 6.8 °C 1002.6 hPa West 8 km/h 24.1 km/h 91 % 0 mm 0 W/m2
05:00 8.1 °C 6.6 °C 1002.6 hPa West 11.3 km/h 24.1 km/h 90 % 0 mm 0 W/m2
05:05 8.2 °C 6.4 °C 1002.6 hPa West 11.3 km/h 24.1 km/h 89 % 0 mm 0 W/m2
05:15 8.1 °C 6.4 °C 1002.6 hPa WNW 6.4 km/h 24.1 km/h 89 % 0 mm 0 W/m2
05:20 8.1 °C 6.2 °C 1002.6 hPa WNW 4.8 km/h 24.1 km/h 88 % 0 mm 0 W/m2
05:25 8.1 °C 6.2 °C 1002.6 hPa NW 4.8 km/h 24.1 km/h 88 % 0 mm 0 W/m2
05:35 8 °C 5.9 °C 1002.6 hPa WSW 4.8 km/h 24.1 km/h 87 % 0 mm 0 W/m2
05:40 8 °C 5.9 °C 1002.9 hPa SW 3.2 km/h 24.1 km/h 87 % 0 mm 0 W/m2
05:50 7.9 °C 5.9 °C 1002.6 hPa West 4.8 km/h 24.1 km/h 87 % 0 mm 0 W/m2
05:55 7.9 °C 5.7 °C 1002.6 hPa West 8 km/h 24.1 km/h 86 % 0 mm 0 W/m2
06:00 7.9 °C 5.7 °C 1002.6 hPa WSW 9.7 km/h 9.7 km/h 86 % 0 mm 0 W/m2
06:05 7.9 °C 5.6 °C 1002.6 hPa SW 9.7 km/h 14.5 km/h 85 % 0 mm 0 W/m2
06:10 7.9 °C 5.5 °C 1002.6 hPa WSW 9.7 km/h 9.7 km/h 85 % 0 mm 0 W/m2
06:20 7.9 °C 5.3 °C 1002.6 hPa SW 9.7 km/h 24.1 km/h 84 % 0 mm 0 W/m2
06:25 7.9 °C 5.3 °C 1002.6 hPa West 11.3 km/h 24.1 km/h 84 % 0 mm 0 W/m2
06:30 7.9 °C 5.2 °C 1002.6 hPa WSW 12.9 km/h 24.1 km/h 83 % 0 mm 0 W/m2
06:35 7.9 °C 5.2 °C 1002.6 hPa WSW 14.5 km/h 24.1 km/h 83 % 0 mm 0 W/m2
06:40 7.9 °C 5.1 °C 1002.6 hPa WSW 16.1 km/h 16.1 km/h 82 % 0 mm 0 W/m2
06:45 7.9 °C 5.1 °C 1002.6 hPa WSW 16.1 km/h 20.9 km/h 82 % 0 mm 0 W/m2
06:55 7.9 °C 5.2 °C 1002.6 hPa SW 12.9 km/h 24.1 km/h 83 % 0 mm 0 W/m2
07:00 7.9 °C 5.2 °C 1002.6 hPa West 11.3 km/h 11.3 km/h 83 % 0 mm 5 W/m2
07:10 7.9 °C 5.3 °C 1002.6 hPa SW 9.7 km/h 24.1 km/h 84 % 0 mm 12 W/m2
07:15 7.9 °C 5.3 °C 1002.3 hPa WSW 9.7 km/h 24.1 km/h 84 % 0 mm 14 W/m2
07:20 8 °C 5.3 °C 1002.3 hPa WSW 12.9 km/h 12.9 km/h 83 % 0 mm 9 W/m2
07:30 8.1 °C 5.2 °C 1002.3 hPa SSW 16.1 km/h 24.1 km/h 82 % 0 mm 14 W/m2
07:35 8.2 °C 5.3 °C 1002.6 hPa SW 16.1 km/h 24.1 km/h 82 % 0 mm 16 W/m2
07:40 8.1 °C 5.2 °C 1002.6 hPa SW 12.9 km/h 24.1 km/h 82 % 0 mm 14 W/m2
07:45 8.1 °C 5.2 °C 1002.6 hPa WSW 14.5 km/h 24.1 km/h 82 % 0 mm 12 W/m2
07:50 8.1 °C 5.2 °C 1002.6 hPa SW 14.5 km/h 14.5 km/h 82 % 0 mm 14 W/m2
08:00 8.2 °C 5.3 °C 1002.3 hPa WSW 16.1 km/h 24.1 km/h 82 % 0 mm 39 W/m2
08:05 8.2 °C 5.4 °C 1002.3 hPa SW 17.7 km/h 24.1 km/h 83 % 0 mm 46 W/m2
08:10 8.2 °C 5.6 °C 1002.3 hPa SW 17.7 km/h 33.8 km/h 84 % 0 mm 56 W/m2
08:15 8.1 °C 5.6 °C 1001.9 hPa South 19.3 km/h 33.8 km/h 84 % 0 mm 40 W/m2
08:20 8.1 °C 5.7 °C 1001.9 hPa SW 20.9 km/h 24.1 km/h 85 % 0 mm 54 W/m2
08:25 8.1 °C 5.7 °C 1001.6 hPa SW 19.3 km/h 24.1 km/h 85 % 0 mm 84 W/m2
08:35 8.3 °C 5.9 °C 1001.6 hPa South 16.1 km/h 24.1 km/h 85 % 0 mm 58 W/m2
08:45 8.3 °C 5.8 °C 1001.2 hPa SW 16.1 km/h 25.7 km/h 84 % 0 mm 186 W/m2
08:50 8.5 °C 5.9 °C 1001.2 hPa SSW 19.3 km/h 32.2 km/h 84 % 0 mm 142 W/m2
08:55 8.6 °C 5.9 °C 1001.2 hPa SSW 20.9 km/h 32.2 km/h 83 % 0 mm 257 W/m2
09:00 8.8 °C 6.1 °C 1001.2 hPa SW 20.9 km/h 24.1 km/h 83 % 0 mm 336 W/m2
09:10 9 °C 6.1 °C 1001.2 hPa SW 24.1 km/h 24.1 km/h 82 % 0 mm 155 W/m2
09:15 9 °C 6.1 °C 1001.2 hPa SW 22.5 km/h 24.1 km/h 82 % 0 mm 232 W/m2
09:20 9.2 °C 6.3 °C 1001.2 hPa SW 20.9 km/h 20.9 km/h 82 % 0 mm 276 W/m2
09:25 9.3 °C 6 °C 1001.2 hPa WSW 22.5 km/h 22.5 km/h 80 % 0 mm 141 W/m2
09:30 9.3 °C 6 °C 1001.2 hPa West 20.9 km/h 20.9 km/h 80 % 0 mm 90 W/m2
09:40 9.2 °C 5.9 °C 1001.2 hPa SW 22.5 km/h 24.1 km/h 80 % 0 mm 135 W/m2
09:45 9.3 °C 6 °C 1001.6 hPa WSW 24.1 km/h 24.1 km/h 80 % 0 mm 139 W/m2
09:50 9.4 °C 5.9 °C 1001.2 hPa WSW 27.4 km/h 27.4 km/h 79 % 0 mm 265 W/m2
09:55 9.5 °C 6.2 °C 1001.2 hPa West 27.4 km/h 27.4 km/h 80 % 0 mm 339 W/m2
10:05 9.8 °C 6.2 °C 1000.9 hPa West 27.4 km/h 29 km/h 78 % 0 mm 297 W/m2
10:10 9.8 °C 6.1 °C 1000.6 hPa WSW 29 km/h 33.8 km/h 78 % 0 mm 253 W/m2
10:20 9.7 °C 6.1 °C 1000.6 hPa SW 25.7 km/h 30.6 km/h 78 % 0 mm 251 W/m2
10:25 9.7 °C 6.3 °C 1000.6 hPa WSW 25.7 km/h 30.6 km/h 79 % 0 mm 230 W/m2
10:30 9.7 °C 6.3 °C 1000.6 hPa SW 27.4 km/h 43.5 km/h 79 % 0 mm 146 W/m2
10:35 9.6 °C 6.2 °C 1000.6 hPa WSW 27.4 km/h 43.5 km/h 79 % 0 mm 104 W/m2
10:40 9.5 °C 6.1 °C 1000.6 hPa WSW 29 km/h 35.4 km/h 79 % 0 mm 95 W/m2
10:50 9.6 °C 6.1 °C 1000.2 hPa SW 27.4 km/h 37 km/h 79 % 0 mm 125 W/m2
10:55 9.6 °C 6.1 °C 1000.2 hPa SW 25.7 km/h 37 km/h 79 % 0 mm 142 W/m2
11:00 9.6 °C 6.2 °C 999.9 hPa SW 27.4 km/h 29 km/h 79 % 0 mm 141 W/m2
11:05 9.6 °C 6.2 °C 1000.2 hPa South 27.4 km/h 33.8 km/h 79 % 0 mm 165 W/m2
11:10 9.7 °C 6.2 °C 1000.2 hPa SW 25.7 km/h 33.8 km/h 79 % 0 mm 174 W/m2
11:20 9.8 °C 6.4 °C 1000.2 hPa SW 20.9 km/h 24.1 km/h 79 % 0 mm 167 W/m2
11:25 9.9 °C 6.4 °C 1000.2 hPa SW 19.3 km/h 24.1 km/h 79 % 0 mm 200 W/m2
11:30 10 °C 6.5 °C 1000.2 hPa SSW 20.9 km/h 20.9 km/h 79 % 0 mm 202 W/m2
11:40 10.1 °C 6.6 °C 999.9 hPa South 17.7 km/h 17.7 km/h 79 % 0 mm 93 W/m2
11:45 10.2 °C 6.5 °C 999.9 hPa SW 17.7 km/h 24.1 km/h 78 % 0 mm 111 W/m2
11:55 10.2 °C 6.6 °C 999.5 hPa SW 16.1 km/h 24.1 km/h 78 % 0 mm 67 W/m2
12:00 10.2 °C 6.6 °C 999.5 hPa South 14.5 km/h 14.5 km/h 78 % 0 mm 60 W/m2
12:05 10.2 °C 6.6 °C 999.2 hPa South 12.9 km/h 24.1 km/h 78 % 0 mm 56 W/m2
12:10 10.2 °C 6.6 °C 999.2 hPa SSW 12.9 km/h 24.1 km/h 78 % 0 mm 63 W/m2
12:15 10.3 °C 6.6 °C 998.9 hPa SSW 14.5 km/h 24.1 km/h 78 % 0 mm 91 W/m2
12:20 10.3 °C 6.6 °C 998.9 hPa SSW 17.7 km/h 17.7 km/h 78 % 0 mm 116 W/m2
12:30 10.3 °C 6.4 °C 998.5 hPa SW 17.7 km/h 17.7 km/h 77 % 0 mm 137 W/m2
12:35 10.3 °C 6.7 °C 998.5 hPa SW 19.3 km/h 19.3 km/h 78 % 0 mm 153 W/m2
12:40 10.3 °C 6.7 °C 998.5 hPa SW 16.1 km/h 24.1 km/h 78 % 0 mm 153 W/m2
12:45 10.2 °C 6.6 °C 998.5 hPa SSW 20.9 km/h 24.1 km/h 78 % 0 mm 183 W/m2
12:50 10.3 °C 6.8 °C 998.2 hPa SSE 22.5 km/h 35.4 km/h 79 % 0 mm 179 W/m2
13:00 10.2 °C 6.7 °C 998.2 hPa SSW 27.4 km/h 27.4 km/h 79 % 0 mm 104 W/m2
13:05 10.2 °C 6.7 °C 997.9 hPa South 22.5 km/h 27.4 km/h 79 % 0 mm 114 W/m2
13:10 10.2 °C 6.9 °C 997.9 hPa WSW 19.3 km/h 24.1 km/h 80 % 0 mm 121 W/m2
13:15 10.3 °C 7 °C 997.5 hPa SSW 19.3 km/h 24.1 km/h 80 % 0 mm 142 W/m2
13:20 10.3 °C 7 °C 997.5 hPa SSW 22.5 km/h 22.5 km/h 80 % 0 mm 200 W/m2
13:25 10.3 °C 7.1 °C 997.2 hPa SSW 27.4 km/h 27.4 km/h 80 % 0 mm 234 W/m2
13:30 10.3 °C 7.2 °C 996.8 hPa SW 30.6 km/h 32.2 km/h 81 % 0 mm 260 W/m2
13:35 10.4 °C 7.3 °C 996.8 hPa WSW 30.6 km/h 32.2 km/h 81 % 0 mm 295 W/m2
13:40 10.6 °C 7.5 °C 996.5 hPa WSW 27.4 km/h 27.4 km/h 81 % 0 mm 396 W/m2
13:50 10.8 °C 7.4 °C 996.2 hPa WSW 27.4 km/h 40.2 km/h 80 % 0 mm 302 W/m2
13:55 10.8 °C 7.5 °C 996.2 hPa SW 33.8 km/h 40.2 km/h 80 % 0 mm 543 W/m2
14:00 11.1 °C 7.7 °C 996.2 hPa SSW 35.4 km/h 37 km/h 80 % 0 mm 561 W/m2
14:10 11.2 °C 7.5 °C 995.8 hPa SW 37 km/h 41.8 km/h 78 % 0 mm 374 W/m2
14:15 11.1 °C 7.6 °C 995.5 hPa WSW 38.6 km/h 46.7 km/h 79 % 0 mm 301 W/m2
14:20 10.8 °C 7.5 °C 995.5 hPa SW 35.4 km/h 35.4 km/h 80 % 0 mm 304 W/m2
14:25 10.7 °C 7.6 °C 995.5 hPa SW 32.2 km/h 35.4 km/h 81 % 0 mm 216 W/m2
14:30 10.6 °C 7.4 °C 995.5 hPa SW 30.6 km/h 30.6 km/h 81 % 0 mm 334 W/m2
14:40 10.7 °C 7.3 °C 995.1 hPa South 32.2 km/h 32.2 km/h 80 % 0 mm 213 W/m2
14:45 10.7 °C 7.3 °C 995.1 hPa SSW 32.2 km/h 32.2 km/h 80 % 0 mm 220 W/m2
14:50 10.6 °C 7.3 °C 994.8 hPa SW 33.8 km/h 33.8 km/h 80 % 0 mm 199 W/m2
14:55 10.6 °C 7.4 °C 994.8 hPa SSW 33.8 km/h 35.4 km/h 81 % 0 mm 132 W/m2
15:05 10.5 °C 7.4 °C 994.8 hPa SW 29 km/h 35.4 km/h 81 % 0 mm 142 W/m2
15:10 10.5 °C 7.4 °C 994.8 hPa South 29 km/h 29 km/h 81 % 0 mm 158 W/m2
15:15 10.5 °C 7.6 °C 994.5 hPa SSW 29 km/h 33.8 km/h 82 % 0 mm 114 W/m2
15:25 10.5 °C 7.4 °C 994.5 hPa SW 29 km/h 29 km/h 81 % 0 mm 135 W/m2
15:30 10.6 °C 7.4 °C 994.5 hPa SW 29 km/h 29 km/h 81 % 0 mm 144 W/m2
15:35 10.7 °C 7.6 °C 994.1 hPa SW 30.6 km/h 30.6 km/h 81 % 0 mm 134 W/m2
15:40 10.7 °C 7.3 °C 994.1 hPa South 32.2 km/h 32.2 km/h 80 % 0 mm 90 W/m2
15:50 10.7 °C 7.3 °C 993.8 hPa SW 32.2 km/h 32.2 km/h 80 % 0 mm 107 W/m2
15:55 10.7 °C 7.3 °C 994.1 hPa SW 30.6 km/h 32.2 km/h 80 % 0 mm 69 W/m2
16:00 10.7 °C 7.3 °C 993.8 hPa WSW 33.8 km/h 43.5 km/h 80 % 0 mm 39 W/m2
16:05 10.7 °C 7.3 °C 993.8 hPa SSW 32.2 km/h 43.5 km/h 80 % 0 mm 76 W/m2
16:10 10.7 °C 7.3 °C 993.8 hPa SW 30.6 km/h 40.2 km/h 80 % 0 mm 49 W/m2
16:20 10.7 °C 7.3 °C 993.5 hPa SW 32.2 km/h 35.4 km/h 80 % 0 mm 42 W/m2
16:25 10.7 °C 7.3 °C 993.5 hPa SSW 32.2 km/h 46.7 km/h 80 % 0 mm 37 W/m2
16:30 10.6 °C 7.5 °C 993.5 hPa SSW 30.6 km/h 32.2 km/h 81 % 0 mm 21 W/m2
16:35 10.6 °C 7.4 °C 993.5 hPa SSW 29 km/h 37 km/h 81 % 0 mm 23 W/m2
16:45 10.6 °C 7.5 °C 993.5 hPa SSW 32.2 km/h 40.2 km/h 81 % 0 mm 23 W/m2
16:50 10.6 °C 7.7 °C 993.5 hPa SSW 30.6 km/h 32.2 km/h 82 % 0 mm 11 W/m2
17:00 10.7 °C 7.7 °C 993.5 hPa SW 30.6 km/h 40.2 km/h 82 % 0 mm 16 W/m2
17:05 10.6 °C 7.7 °C 993.1 hPa SW 30.6 km/h 40.2 km/h 82 % 0 mm 12 W/m2
17:10 10.6 °C 7.8 °C 993.5 hPa SSW 32.2 km/h 38.6 km/h 83 % 0 mm 12 W/m2
17:15 10.5 °C 7.9 °C 993.1 hPa South 32.2 km/h 38.6 km/h 84 % 0 mm 7 W/m2
17:20 10.3 °C 7.9 °C 993.1 hPa SSW 30.6 km/h 30.6 km/h 85 % 0 mm 7 W/m2
17:30 10.1 °C 8.2 °C 993.1 hPa SW 30.6 km/h 30.6 km/h 88 % 0 mm 0 W/m2
17:35 10 °C 8.1 °C 993.1 hPa South 29 km/h 30.6 km/h 88 % 0 mm 0 W/m2
17:40 9.9 °C 8.2 °C 993.5 hPa SW 27.4 km/h 32.2 km/h 89 % 0 mm 0 W/m2
17:50 9.8 °C 8.2 °C 993.1 hPa South 27.4 km/h 27.4 km/h 90 % 0 mm 0 W/m2
17:55 9.7 °C 8.3 °C 993.1 hPa SSW 27.4 km/h 41.8 km/h 91 % 0 mm 0 W/m2
18:05 9.6 °C 7.4 °C 993.5 hPa SW 32.2 km/h 48.3 km/h 86 % 0 mm 0 W/m2
18:10 9.7 °C 7.1 °C 993.5 hPa SW 38.6 km/h 38.6 km/h 84 % 0 mm 0 W/m2
18:15 9.6 °C 7.2 °C 993.1 hPa SW 37 km/h 38.6 km/h 85 % 1.27 mm 0 W/m2
18:20 9.6 °C 7.2 °C 993.5 hPa NW 32.2 km/h 37 km/h 85 % 1.27 mm 0 W/m2
18:25 9.6 °C 7.2 °C 993.1 hPa WSW 33.8 km/h 37 km/h 85 % 1.27 mm 0 W/m2
18:35 9.8 °C 7.1 °C 993.1 hPa SSW 32.2 km/h 38.6 km/h 83 % 0 mm 0 W/m2
18:40 9.9 °C 7 °C 993.5 hPa SW 32.2 km/h 32.2 km/h 82 % 0 mm 0 W/m2
18:45 9.9 °C 6.8 °C 993.5 hPa WSW 30.6 km/h 32.2 km/h 81 % 0 mm 0 W/m2
18:50 9.9 °C 6.8 °C 993.5 hPa WSW 30.6 km/h 30.6 km/h 81 % 0 mm 0 W/m2
18:55 9.9 °C 6.8 °C 993.5 hPa WSW 27.4 km/h 30.6 km/h 81 % 0 mm 0 W/m2
19:00 9.9 °C 6.8 °C 993.5 hPa WSW 27.4 km/h 27.4 km/h 81 % 0 mm 0 W/m2
19:10 9.9 °C 6.8 °C 993.5 hPa SW 29 km/h 29 km/h 81 % 0 mm 0 W/m2
19:20 9.9 °C 6.7 °C 993.5 hPa WSW 27.4 km/h 37 km/h 80 % 0 mm 0 W/m2
19:25 9.9 °C 6.6 °C 993.5 hPa WSW 27.4 km/h 37 km/h 80 % 0 mm 0 W/m2
19:30 9.9 °C 6.4 °C 993.5 hPa WSW 30.6 km/h 30.6 km/h 79 % 0 mm 0 W/m2
19:35 9.8 °C 6.3 °C 993.5 hPa WSW 30.6 km/h 30.6 km/h 79 % 0 mm 0 W/m2
19:45 9.6 °C 5.9 °C 993.8 hPa WSW 29 km/h 32.2 km/h 78 % 0 mm 0 W/m2
19:50 9.6 °C 5.9 °C 994.1 hPa SSW 27.4 km/h 30.6 km/h 78 % 0 mm 0 W/m2
19:55 9.5 °C 5.8 °C 994.1 hPa West 25.7 km/h 32.2 km/h 78 % 0 mm 0 W/m2
20:00 9.6 °C 5.9 °C 994.5 hPa West 29 km/h 30.6 km/h 78 % 0 mm 0 W/m2
20:05 9.4 °C 6 °C 994.5 hPa WSW 30.6 km/h 30.6 km/h 79 % 0 mm 0 W/m2
20:15 8.7 °C 6 °C 994.8 hPa West 25.7 km/h 40.2 km/h 83 % 0 mm 0 W/m2
20:20 8.5 °C 5.9 °C 994.5 hPa WSW 24.1 km/h 24.1 km/h 84 % 0 mm 0 W/m2
20:25 8.4 °C 6 °C 994.8 hPa West 22.5 km/h 24.1 km/h 85 % 0 mm 0 W/m2
20:30 8.4 °C 6 °C 994.5 hPa SW 20.9 km/h 24.1 km/h 85 % 0 mm 0 W/m2
20:35 8.4 °C 6.2 °C 994.5 hPa WSW 20.9 km/h 29 km/h 86 % 0 mm 0 W/m2
20:45 8.4 °C 6.2 °C 994.8 hPa WSW 17.7 km/h 24.1 km/h 86 % 0 mm 0 W/m2
20:55 8.4 °C 6 °C 994.8 hPa West 17.7 km/h 24.1 km/h 85 % 0 mm 0 W/m2
21:00 8.3 °C 5.9 °C 995.1 hPa West 14.5 km/h 14.5 km/h 85 % 0 mm 0 W/m2
21:05 8.2 °C 6 °C 995.1 hPa West 12.9 km/h 24.1 km/h 86 % 0 mm 0 W/m2
21:10 8.1 °C 5.9 °C 995.1 hPa West 12.9 km/h 24.1 km/h 86 % 0 mm 0 W/m2
21:15 8.1 °C 5.7 °C 995.1 hPa WSW 14.5 km/h 24.1 km/h 85 % 0 mm 0 W/m2
21:25 8 °C 5.6 °C 995.1 hPa WNW 9.7 km/h 24.1 km/h 85 % 0 mm 0 W/m2
21:30 7.9 °C 5.3 °C 995.1 hPa WSW 9.7 km/h 9.7 km/h 84 % 0 mm 0 W/m2
21:35 7.8 °C 5.3 °C 995.1 hPa WSW 8 km/h 24.1 km/h 84 % 0 mm 0 W/m2
21:40 7.7 °C 5.1 °C 995.1 hPa WSW 3.2 km/h 3.2 km/h 84 % 0 mm 0 W/m2
21:45 7.5 °C 4.9 °C 995.1 hPa SW 3.2 km/h 24.1 km/h 84 % 0 mm 0 W/m2
21:55 7.4 °C 4.7 °C 995.1 hPa SW 6.4 km/h 24.1 km/h 83 % 0 mm 0 W/m2
22:00 7.4 °C 4.5 °C 995.1 hPa SSW 9.7 km/h 24.1 km/h 82 % 0 mm 0 W/m2
22:10 7.4 °C 4.3 °C 995.1 hPa SW 11.3 km/h 11.3 km/h 81 % 0 mm 0 W/m2
22:15 7.4 °C 4.5 °C 994.8 hPa WSW 8 km/h 24.1 km/h 82 % 0 mm 0 W/m2
22:20 7.4 °C 4.5 °C 995.1 hPa SW 8 km/h 24.1 km/h 82 % 0 mm 0 W/m2
22:30 7.4 °C 4.7 °C 994.8 hPa SW 9.7 km/h 24.1 km/h 83 % 0 mm 0 W/m2
22:35 7.4 °C 4.7 °C 994.8 hPa SW 8 km/h 24.1 km/h 83 % 0 mm 0 W/m2
22:40 7.4 °C 4.8 °C 994.8 hPa SW 9.7 km/h 9.7 km/h 84 % 0 mm 0 W/m2
22:45 7.3 °C 4.8 °C 994.8 hPa SW 8 km/h 24.1 km/h 84 % 0 mm 0 W/m2
22:50 7.4 °C 5.1 °C 994.8 hPa SSW 6.4 km/h 24.1 km/h 85 % 0 mm 0 W/m2
22:55 7.3 °C 5 °C 994.8 hPa SSW 4.8 km/h 24.1 km/h 85 % 0 mm 0 W/m2
23:00 7.3 °C 5.2 °C 994.8 hPa SSW 4.8 km/h 24.1 km/h 86 % 0 mm 0 W/m2
23:05 7.3 °C 5.1 °C 994.8 hPa SSW 3.2 km/h 24.1 km/h 86 % 0 mm 0 W/m2
23:10 7.2 °C 5.2 °C 994.8 hPa SW 4.8 km/h 24.1 km/h 87 % 0 mm 0 W/m2
23:15 7.1 °C 5.1 °C 994.8 hPa SW 11.3 km/h 24.1 km/h 87 % 0 mm 0 W/m2
23:20 6.9 °C 4.9 °C 994.8 hPa West 14.5 km/h 14.5 km/h 87 % 0 mm 0 W/m2
23:30 6.6 °C 4.8 °C 995.1 hPa SW 14.5 km/h 14.5 km/h 88 % 0 mm 0 W/m2
23:40 6.4 °C 4.6 °C 994.8 hPa SW 11.3 km/h 11.3 km/h 88 % 0 mm 0 W/m2
23:45 6.3 °C 4.3 °C 994.8 hPa SW 12.9 km/h 14.5 km/h 87 % 0 mm 0 W/m2
23:50 6.3 °C 4.3 °C 994.8 hPa SW 11.3 km/h 11.3 km/h 87 % 0 mm 0 W/m2
23:55 6.2 °C 4.2 °C 994.8 hPa WSW 9.7 km/h 24.1 km/h 87 % 0 mm 0 W/m2
Delerius-Weather
Compliments of Weather Underground - 2 mb

Data updates at regular intervals.